When you browse on this site, cookies collect data to enhance your experience and personalize the content and advertising you see.
Visit our Privacy Policy to learn more. By continuing to use the site, you agree to this use of cookies and data.
  • In Österreich
  • Länderverzeichnis
  • Für 7 Tage
  • Wassertemperatur
  • Satellitenkarten
  • Wetterkarte
  • News
  • Widgets
  • user-avatar
    Anmelden

    Stündliche Wetter Adelaide

    Heute, 26 Mai, Sonntag

    Zeit Temperatur Niederschläge Wind Luftdruck Luftfeuchtigkeit
    00:00 +12°C° 0 mm 4 m/S 760 mmHg 72%
    01:00 +12°C° 0 mm 4 m/S 760 mmHg 73%
    02:00 +12°C° 0 mm 4 m/S 760 mmHg 73%
    03:00 +12°C° 0 mm 4 m/S 759 mmHg 74%
    04:00 +12°C° 0 mm 4 m/S 759 mmHg 74%
    05:00 +12°C° 0 mm 4 m/S 759 mmHg 74%
    06:00 +13°C° 0 mm 4 m/S 759 mmHg 74%
    07:00 +13°C° 0 mm 5 m/S 759 mmHg 71%
    08:00 +14°C° 0 mm 6 m/S 759 mmHg 68%
    09:00 +15°C° 0 mm 6 m/S 760 mmHg 65%
    10:00 +15°C° 0.1 mm 6 m/S 759 mmHg 65%
    11:00 +15°C° 0.1 mm 6 m/S 759 mmHg 65%
    12:00 +16°C° 0.1 mm 7 m/S 758 mmHg 65%
    13:00 +16°C° 0.2 mm 7 m/S 758 mmHg 66%
    14:00 +16°C° 0.2 mm 7 m/S 758 mmHg 67%
    15:00 +15°C° 0 mm 8 m/S 757 mmHg 69%
    16:00 +15°C° 0.2 mm 8 m/S 757 mmHg 70%
    17:00 +15°C° 0.2 mm 8 m/S 757 mmHg 71%
    18:00 +15°C° 0.2 mm 8 m/S 757 mmHg 71%
    19:00 +15°C° 0.3 mm 8 m/S 757 mmHg 72%
    20:00 +15°C° 0.3 mm 8 m/S 757 mmHg 73%
    21:00 +14°C° 0 mm 7 m/S 757 mmHg 74%
    22:00 +13°C° 0.2 mm 8 m/S 757 mmHg 74%
    23:00 +13°C° 0.2 mm 8 m/S 758 mmHg 73%

    Morgen, 27 Mai, Montag

    Zeit Temperatur Niederschläge Wind Luftdruck Luftfeuchtigkeit
    00:00 +13°C° 0.2 mm 8 m/S 758 mmHg 73%
    01:00 +12°C° 0.1 mm 8 m/S 758 mmHg 71%
    02:00 +12°C° 0.1 mm 8 m/S 758 mmHg 69%
    03:00 +11°C° 0.1 mm 8 m/S 758 mmHg 67%
    04:00 +11°C° 0 mm 7 m/S 758 mmHg 66%
    05:00 +11°C° 0 mm 7 m/S 759 mmHg 65%
    06:00 +11°C° 0 mm 7 m/S 759 mmHg 64%
    07:00 +11°C° 0 mm 7 m/S 760 mmHg 62%
    08:00 +12°C° 0 mm 7 m/S 760 mmHg 61%
    09:00 +12°C° 0 mm 7 m/S 761 mmHg 59%
    10:00 +13°C° 0 mm 6 m/S 761 mmHg 58%
    11:00 +13°C° 0 mm 6 m/S 761 mmHg 58%
    12:00 +14°C° 0 mm 6 m/S 761 mmHg 58%
    13:00 +13°C° 0 mm 5 m/S 761 mmHg 60%
    14:00 +13°C° 0 mm 5 m/S 761 mmHg 62%
    15:00 +13°C° 0 mm 5 m/S 761 mmHg 64%
    16:00 +12°C° 0 mm 4 m/S 761 mmHg 67%
    17:00 +12°C° 0 mm 4 m/S 761 mmHg 69%
    18:00 +12°C° 0 mm 4 m/S 761 mmHg 72%
    19:00 +12°C° 0 mm 4 m/S 761 mmHg 72%
    20:00 +12°C° 0 mm 4 m/S 761 mmHg 72%
    21:00 +12°C° 0 mm 4 m/S 761 mmHg 73%
    22:00 +13°C° 0.1 mm 4 m/S 761 mmHg 74%
    23:00 +13°C° 0.1 mm 5 m/S 761 mmHg 75%

    übermorgen, 28 Mai, Dienstag

    Zeit Temperatur Niederschläge Wind Luftdruck Luftfeuchtigkeit
    00:00 +13°C° 0.1 mm 5 m/S 760 mmHg 76%
    01:00 +13°C° 0.1 mm 5 m/S 760 mmHg 77%
    02:00 +13°C° 0.1 mm 5 m/S 760 mmHg 77%
    03:00 +13°C° 0.1 mm 6 m/S 759 mmHg 78%
    04:00 +13°C° 0.2 mm 6 m/S 759 mmHg 78%
    05:00 +13°C° 0.2 mm 6 m/S 759 mmHg 78%
    06:00 +14°C° 0.2 mm 6 m/S 759 mmHg 78%
    07:00 +14°C° 0.2 mm 6 m/S 759 mmHg 77%
    08:00 +14°C° 0.2 mm 6 m/S 759 mmHg 76%
    09:00 +14°C° 0.2 mm 6 m/S 759 mmHg 75%
    10:00 +15°C° 0.1 mm 7 m/S 758 mmHg 72%
    11:00 +15°C° 0.1 mm 7 m/S 758 mmHg 69%
    12:00 +16°C° 0.1 mm 8 m/S 757 mmHg 66%
    13:00 +15°C° 0.2 mm 8 m/S 757 mmHg 68%
    14:00 +15°C° 0.2 mm 8 m/S 757 mmHg 70%
    15:00 +15°C° 0.2 mm 8 m/S 756 mmHg 73%
    16:00 +13°C° 0.1 mm 8 m/S 756 mmHg 72%
    17:00 +13°C° 0.1 mm 8 m/S 756 mmHg 72%
    18:00 +14°C° 0.1 mm 7 m/S 756 mmHg 71%
    19:00 +13°C° 0 mm 8 m/S 756 mmHg 71%
    20:00 +12°C° 0 mm 8 m/S 756 mmHg 71%
    21:00 +12°C° 0 mm 8 m/S 756 mmHg 71%
    22:00 +12°C° 0.1 mm 8 m/S 756 mmHg 71%
    23:00 +12°C° 0.1 mm 8 m/S 756 mmHg 72%

    29 Mai, Mittwoch

    Zeit Temperatur Niederschläge Wind Luftdruck Luftfeuchtigkeit
    00:00 +12°C° 0.1 mm 8 m/S 756 mmHg 72%
    01:00 +12°C° 0.1 mm 8 m/S 756 mmHg 71%
    02:00 +11°C° 0.1 mm 8 m/S 755 mmHg 71%
    03:00 +11°C° 0.1 mm 8 m/S 755 mmHg 70%
    04:00 +11°C° 0.2 mm 8 m/S 756 mmHg 69%
    05:00 +10°C° 0.2 mm 8 m/S 756 mmHg 68%
    06:00 +10°C° 0.2 mm 8 m/S 756 mmHg 68%
    07:00 +10°C° 0.2 mm 8 m/S 757 mmHg 65%
    08:00 +10°C° 0.2 mm 8 m/S 757 mmHg 63%
    09:00 +10°C° 0.2 mm 8 m/S 758 mmHg 60%
    10:00 +10°C° 0.2 mm 7 m/S 758 mmHg 59%
    11:00 +11°C° 0.2 mm 7 m/S 758 mmHg 57%
    12:00 +11°C° 0.2 mm 7 m/S 759 mmHg 56%
    13:00 +11°C° 0.1 mm 7 m/S 759 mmHg 55%
    14:00 +11°C° 0.1 mm 7 m/S 759 mmHg 54%
    15:00 +11°C° 0.1 mm 7 m/S 759 mmHg 53%
    16:00 +11°C° 0 mm 6 m/S 760 mmHg 57%
    17:00 +10°C° 0 mm 6 m/S 760 mmHg 61%
    18:00 +9°C° 0 mm 5 m/S 761 mmHg 65%
    19:00 +9°C° 0.1 mm 5 m/S 761 mmHg 66%
    20:00 +9°C° 0.1 mm 5 m/S 762 mmHg 68%
    21:00 +9°C° 0.1 mm 5 m/S 763 mmHg 69%
    22:00 +9°C° 0.1 mm 5 m/S 763 mmHg 70%
    23:00 +8°C° 0.1 mm 5 m/S 763 mmHg 70%

    30 Mai, Donnerstag

    Zeit Temperatur Niederschläge Wind Luftdruck Luftfeuchtigkeit
    00:00 +8°C° 0.1 mm 5 m/S 764 mmHg 71%
    01:00 +8°C° 0.1 mm 5 m/S 764 mmHg 71%
    02:00 +8°C° 0.1 mm 4 m/S 764 mmHg 71%
    03:00 +8°C° 0.1 mm 4 m/S 765 mmHg 71%
    04:00 +8°C° 0.1 mm 4 m/S 765 mmHg 73%
    05:00 +8°C° 0.1 mm 4 m/S 766 mmHg 74%
    06:00 +8°C° 0.1 mm 4 m/S 766 mmHg 76%
    07:00 +8°C° 0.1 mm 4 m/S 767 mmHg 73%
    08:00 +10°C° 0.1 mm 4 m/S 768 mmHg 70%
    09:00 +11°C° 0.1 mm 4 m/S 769 mmHg 68%
    10:00 +12°C° 0.1 mm 4 m/S 769 mmHg 64%
    11:00 +12°C° 0.1 mm 3 m/S 769 mmHg 60%
    12:00 +13°C° 0.1 mm 3 m/S 769 mmHg 56%
    13:00 +13°C° 0.1 mm 4 m/S 769 mmHg 57%
    14:00 +13°C° 0.1 mm 4 m/S 769 mmHg 59%
    15:00 +13°C° 0.1 mm 4 m/S 769 mmHg 60%
    16:00 +12°C° 0 mm 4 m/S 769 mmHg 64%
    17:00 +11°C° 0 mm 3 m/S 770 mmHg 67%
    18:00 +10°C° 0 mm 3 m/S 770 mmHg 71%
    19:00 +10°C° 0 mm 3 m/S 771 mmHg 73%
    20:00 +9°C° 0 mm 3 m/S 771 mmHg 76%
    21:00 +9°C° 0 mm 3 m/S 771 mmHg 78%
    22:00 +9°C° 0 mm 2 m/S 771 mmHg 79%
    23:00 +9°C° 0 mm 2 m/S 771 mmHg 80%

    31 Mai, Freitag

    Zeit Temperatur Niederschläge Wind Luftdruck Luftfeuchtigkeit
    00:00 +8°C° 0 mm 2 m/S 771 mmHg 81%
    01:00 +8°C° 0 mm 2 m/S 771 mmHg 82%
    02:00 +8°C° 0 mm 2 m/S 771 mmHg 83%
    03:00 +8°C° 0 mm 2 m/S 771 mmHg 84%
    04:00 +7°C° 0 mm 2 m/S 772 mmHg 83%
    05:00 +7°C° 0 mm 2 m/S 772 mmHg 83%
    06:00 +8°C° 0 mm 1 m/S 772 mmHg 83%
    07:00 +9°C° 0 mm 1 m/S 773 mmHg 77%
    08:00 +10°C° 0 mm 1 m/S 773 mmHg 72%
    09:00 +12°C° 0 mm 1 m/S 773 mmHg 66%
    10:00 +13°C° 0 mm 2 m/S 773 mmHg 62%
    11:00 +14°C° 0 mm 2 m/S 773 mmHg 57%
    12:00 +15°C° 0 mm 2 m/S 772 mmHg 53%
    13:00 +15°C° 0 mm 2 m/S 772 mmHg 53%
    14:00 +15°C° 0 mm 2 m/S 772 mmHg 54%
    15:00 +15°C° 0 mm 2 m/S 771 mmHg 55%
    16:00 +14°C° 0 mm 2 m/S 771 mmHg 62%
    17:00 +13°C° 0 mm 2 m/S 772 mmHg 68%
    18:00 +12°C° 0 mm 2 m/S 772 mmHg 75%
    19:00 +10°C° 0 mm 2 m/S 772 mmHg 78%
    20:00 +10°C° 0 mm 2 m/S 772 mmHg 81%
    21:00 +9°C° 0 mm 2 m/S 772 mmHg 84%
    22:00 +9°C° 0 mm 2 m/S 772 mmHg 85%
    23:00 +9°C° 0 mm 2 m/S 772 mmHg 86%
    Mehr zeigen